Cherryvale, KS

11:52 PM CDT on August 25, 2016 (GMT -0500)
Tri-City

Weather History for KPPF - September, 2013

Change the Weather History Date:

Tuesday, September 24, 2013

  Actual Average Record
Temperature  
Mean Temperature 69 °F -  
Max Temperature 81 °F 75 °F 90 °F (1954)
Min Temperature 57 °F 53 °F 32 °F (1989)
Cooling Degree Days 4    
Growing Degree Days 19 (Base 50)    
Moisture  
Dew Point 55 °F    
Average Humidity 66    
Maximum Humidity 90    
Minimum Humidity 43    
Precipitation  
Precipitation 0.00 in - - ()
Sea Level Pressure  
Sea Level Pressure 29.85 in    
Wind  
Wind Speed 7 mph (West)    
Max Wind Speed 15 mph    
Max Gust Speed 24 mph    
Visibility 10 miles    
Events      
Averages and records for this station are not official NWS values.
T = Trace of Precipitation, MM = Missing Value Source: NWS Daily Summary

Daily Weather History Graph

Daily Weather History Graph

Search for Another Location

Airport or City:

Trip Planner

Search our weather history database for the weather conditions in past years. The results will help you decide how hot, cold, wet, or windy it might be!

Date:

Astronomy

Sep. 24, 2013 Rise Set
Actual Time 7:11 AM CDT 7:15 PM CDT
Civil Twilight 6:45 AM CDT 7:41 PM CDT
Nautical Twilight 6:15 AM CDT 8:11 PM CDT
Astronomical Twilight 5:44 AM CDT 8:42 PM CDT
Moon 10:40 PM CDT (9/24) 12:20 PM CDT (9/24)
Length of Visible Light 12h 55m
Length of Day
12h 03m
Waning Gibbous, 73% of the Moon is Illuminated
Sep 24
Waning Gibbous
Sep 26
Last Quarter
Oct 4
New
Oct 11
First Quarter
Oct 18
Full

Hourly Weather History & Observations

Time (CDT) Temp. Heat Index Dew Point Humidity Pressure Visibility Wind Dir Wind Speed Gust Speed Precip Events Conditions
12:52 AM 66.9 °F - 54.0 °F 63% 29.81 in 10.0 mi SSE 5.8 mph - N/A   Clear
1:52 AM 66.9 °F - 54.0 °F 63% 29.80 in 10.0 mi South 8.1 mph - N/A   Clear
2:52 AM 66.0 °F - 55.0 °F 68% 29.81 in 10.0 mi South 6.9 mph - N/A   Clear
3:52 AM 63.0 °F - 55.0 °F 75% 29.81 in 10.0 mi South 5.8 mph - N/A   Clear
4:52 AM 62.1 °F - 54.0 °F 75% 29.81 in 10.0 mi SSW 5.8 mph - N/A   Clear
5:52 AM 60.1 °F - 53.1 °F 78% 29.82 in 10.0 mi SSW 4.6 mph - N/A   Clear
6:52 AM 59.0 °F - 53.1 °F 81% 29.84 in 10.0 mi SSW 3.5 mph - N/A   Clear
7:52 AM 57.9 °F - 53.1 °F 84% 29.86 in 10.0 mi SW 3.5 mph - N/A   Clear
8:52 AM 64.0 °F - 53.1 °F 67% 29.86 in 10.0 mi West 5.8 mph - N/A   Clear
9:52 AM 69.1 °F - 54.0 °F 58% 29.86 in 10.0 mi WNW 12.7 mph 18.4 mph N/A   Clear
10:52 AM 71.1 °F - 55.0 °F 57% 29.86 in 10.0 mi WNW 11.5 mph 17.3 mph N/A   Partly Cloudy
11:52 AM 73.9 °F - 55.9 °F 53% 29.86 in 10.0 mi NW 10.4 mph - N/A   Clear
12:52 PM 73.9 °F - 55.9 °F 53% 29.86 in 10.0 mi WNW 12.7 mph - N/A   Scattered Clouds
1:52 PM 78.1 °F - 57.0 °F 48% 29.85 in 10.0 mi West 15.0 mph - N/A   Mostly Cloudy
2:52 PM 80.1 °F 80.2 °F 55.9 °F 43% 29.84 in 10.0 mi West 13.8 mph 23.0 mph N/A   Mostly Cloudy
3:52 PM 81.0 °F 81.0 °F 57.0 °F 44% 29.84 in 10.0 mi NW 15.0 mph 24.2 mph N/A   Mostly Cloudy
4:52 PM 75.9 °F - 55.0 °F 48% 29.86 in 10.0 mi NW 13.8 mph 23.0 mph N/A   Mostly Cloudy
5:52 PM 75.0 °F - 55.9 °F 51% 29.86 in 10.0 mi NW 9.2 mph - N/A   Overcast
6:52 PM 72.0 °F - 55.9 °F 57% 29.86 in 10.0 mi NW 6.9 mph - N/A   Mostly Cloudy
7:52 PM 66.9 °F - 57.0 °F 70% 29.86 in 10.0 mi NW 3.5 mph - N/A   Mostly Cloudy
8:52 PM 62.1 °F - 57.0 °F 84% 29.87 in 10.0 mi Calm Calm - N/A   Clear
9:52 PM 61.0 °F - 55.9 °F 83% 29.88 in 10.0 mi NW 4.6 mph - N/A   Clear
10:52 PM 63.0 °F - 57.0 °F 81% 29.87 in 10.0 mi NW 5.8 mph - N/A   Clear
11:52 PM 59.0 °F - 55.9 °F 90% 29.87 in 10.0 mi Calm Calm - N/A   Clear